Lake Fork, ID

8:07 AM MDT on August 29, 2016 (GMT -0600)
McCall

Weather History for KMYL - January, 2012

Change the Weather History Date:

Saturday, January 7, 2012

  Actual Average Record
Temperature  
Mean Temperature 24 °F 19 °F  
Max Temperature 31 °F 28 °F 43 °F (1966)
Min Temperature 16 °F 10 °F -29 °F (1937)
Degree Days  
Heating Degree Days 41 46  
Month to date heating degree days 269 322  
Since 1 July heating degree days 3770 4396  
Cooling Degree Days 0 0  
Month to date cooling degree days 0 0  
Year to date cooling degree days 0 0  
Moisture  
Dew Point 16 °F    
Average Humidity 71    
Maximum Humidity 92    
Minimum Humidity 49    
Precipitation  
Precipitation 0.00 in 0.06 in 1.41 in (1953)
Month to date precipitation 0.00 0.40  
Year to date precipitation 0.00 0.40  
Sea Level Pressure  
Sea Level Pressure 30.34 in    
Wind  
Wind Speed 5 mph (NW)    
Max Wind Speed 13 mph    
Max Gust Speed 16 mph    
Visibility 10 miles    
Events      
T = Trace of Precipitation, MM = Missing Value Source: NWS Daily Summary

Daily Weather History Graph

Daily Weather History Graph

Search for Another Location

Airport or City:

Trip Planner

Search our weather history database for the weather conditions in past years. The results will help you decide how hot, cold, wet, or windy it might be!

Date:

Astronomy

Jan. 07, 2012 Rise Set
Actual Time 8:21 AM MST 5:19 PM MST
Civil Twilight 7:48 AM MST 5:52 PM MST
Nautical Twilight 7:11 AM MST 6:29 PM MST
Astronomical Twilight 6:36 AM MST 7:04 PM MST
Moon 4:07 PM MST (1/7) 6:57 AM MST (1/7)
Length of Visible Light 10h 04m
Length of Day
8h 57m
Waxing Gibbous, 98% of the Moon is Illuminated
Jan 7
Waxing Gibbous
Jan 9
Full
Jan 16
Last Quarter
Jan 23
New
Jan 30
First Quarter

Hourly Weather History & Observations

Time (MST) Temp. Windchill Dew Point Humidity Pressure Visibility Wind Dir Wind Speed Gust Speed Precip Events Conditions
12:07 AM 23.0 °F 18.4 °F 17.6 °F 80% 30.06 in 10.0 mi NNW 3.5 mph - N/A   Overcast
12:51 AM 23.0 °F 18.4 °F 17.1 °F 78% 30.18 in 10.0 mi North 3.5 mph - N/A   Overcast
1:51 AM 21.0 °F 16.2 °F 16.0 °F 81% 30.19 in 10.0 mi NNE 3.5 mph - N/A   Overcast
2:51 AM 19.0 °F - 16.0 °F 88% 30.20 in 10.0 mi Calm Calm - N/A   Mostly Cloudy
3:51 AM 21.9 °F 14.5 °F 17.1 °F 82% 30.20 in 10.0 mi NW 5.8 mph - N/A   Overcast
4:51 AM 21.9 °F 15.7 °F 18.0 °F 85% 30.23 in 10.0 mi West 4.6 mph - N/A   Overcast
5:51 AM 21.9 °F 17.2 °F 18.0 °F 85% 30.24 in 10.0 mi NNW 3.5 mph - N/A   Clear
6:51 AM 21.9 °F 14.5 °F 16.0 °F 78% 30.27 in 10.0 mi WNW 5.8 mph - N/A   Mostly Cloudy
7:51 AM 19.9 °F 11.1 °F 16.0 °F 85% 30.31 in 10.0 mi WNW 6.9 mph - N/A   Clear
8:51 AM 19.0 °F 11.1 °F 15.1 °F 85% 30.34 in 10.0 mi WNW 5.8 mph - N/A   Partly Cloudy
9:51 AM 21.0 °F - 15.1 °F 78% 30.38 in 10.0 mi Calm Calm - N/A   Clear
10:51 AM 28.0 °F 20.0 °F 15.1 °F 58% 30.37 in 10.0 mi North 8.1 mph - N/A   Clear
11:51 AM 30.0 °F - 14.0 °F 51% 30.37 in 10.0 mi Calm Calm - N/A   Clear
12:51 PM 28.9 °F 21.1 °F 18.0 °F 64% 30.37 in 10.0 mi WSW 8.1 mph - N/A   Clear
1:51 PM 30.0 °F 21.7 °F 18.0 °F 61% 30.38 in 10.0 mi West 9.2 mph - N/A   Clear
2:51 PM 30.0 °F 21.1 °F 17.1 °F 59% 30.39 in 10.0 mi West 10.4 mph - N/A   Clear
3:51 PM 28.9 °F 20.4 °F 17.1 °F 61% 30.38 in 10.0 mi West 9.2 mph - N/A   Clear
4:51 PM 27.0 °F 21.6 °F 17.1 °F 66% 30.40 in 10.0 mi West 4.6 mph - N/A   Clear
5:51 PM 24.1 °F 18.2 °F 17.1 °F 75% 30.43 in 10.0 mi NW 4.6 mph - N/A   Clear
6:51 PM 23.0 °F 14.7 °F 16.0 °F 74% 30.45 in 10.0 mi NNW 6.9 mph - N/A   Clear
7:51 PM 19.9 °F 14.9 °F 15.1 °F 81% 30.47 in 10.0 mi NE 3.5 mph - N/A   Clear
8:51 PM 17.1 °F - 14.0 °F 88% 30.50 in 10.0 mi Calm Calm - N/A   Partly Cloudy
9:51 PM 17.1 °F 11.7 °F 14.0 °F 88% 30.52 in 10.0 mi NNW 3.5 mph - N/A   Partly Cloudy
10:51 PM 18.0 °F - 15.1 °F 88% 30.48 in 10.0 mi Calm Calm - N/A   Overcast
11:51 PM 19.9 °F - 16.0 °F 85% 30.47 in 10.0 mi Calm Calm - N/A   Overcast